Regional Weather Roundup
Issued by NWS

Home | Current Version | Previous Version | Text Only | Print | Product List | Glossary On
Versions: 1 2 3 4 5 6 7 8 9 10 11 12 13 14 15 16 17 18 19 20 21 22 23 24 25 26 27 28 29 30 31 32 33 34 35 36 37 38 39 40 41 42 43 44 45 46 47 48 49 50
000
ASUS44 KOUN 102210
RWROK

WEATHER ROUNDUP FOR OKLAHOMA
NATIONAL WEATHER SERVICE NORMAN OK
400 PM CST SAT DEC 10 2016

NOTE: "FAIR" INDICATES FEW OR NO CLOUDS BELOW 12,000 FEET WITH NO
      SIGNIFICANT WEATHER AND/OR OBSTRUCTIONS TO VISIBILITY.

OKZ001>007-009>012-014-015-017-102300-
NORTHWEST OKLAHOMA AND THE PANHANDLE

CITY           SKY/WX    TMP DP  RH WIND       PRES   REMARKS
GAGE           CLOUDY    50  32  50 S24G33    29.91F
GUYMON         SUNNY     69  29  22 S20G30    29.78F
$$

OKZ016-021>023-033>039-044-045-102300-
SOUTHWEST OKLAHOMA

CITY           SKY/WX    TMP DP  RH WIND       PRES   REMARKS
LAWTON/REGL    SUNNY     51  32  48 S20G26    30.10F
LAWTON/FT SILL SUNNY     50  34  53 S16G28    30.08F
FREDERICK      SUNNY     53  36  52 S17G28    30.04F
CLINTON        SUNNY     50  33  52 S26G35    30.00F
HOBART         SUNNY     51  36  56 S26G35    30.04F
ALTUS AFB      SUNNY     54  35  47 S21G30    30.04F
$$

OKZ018>020-024>031-102300-
CENTRAL OKLAHOMA

CITY           SKY/WX    TMP DP  RH WIND       PRES   REMARKS
OKLAHOMA CITY  MOSUNNY   46  27  47 S23G31    30.09F
OKC/WILEY POST SUNNY     47  27  45 S23G31    30.09F
OKC/TINKER AFB MOSUNNY   45  26  47 S18       30.09F
STILLWATER     MOSUNNY   46  24  42 S23G33    30.08F
GUTHRIE        MOSUNNY   46  28  49 S17G28    30.08F
$$

OKZ008-013-054>072-102300-
NORTHEAST OKLAHOMA

CITY           SKY/WX    TMP DP  RH WIND       PRES   REMARKS
TULSA          CLOUDY    45  20  36 S14G24    30.16F
TULSA/JONES    CLOUDY    45  19  35 S16G25    30.17F
PONCA CITY     CLOUDY    45  23  42 S12G25    30.08F
BARTLESVILLE   CLOUDY    45  18  34 S14G21    30.16F
MUSKOGEE       CLOUDY    46  18  32 S16G24    30.22F
$$

OKZ032-040>043-046>053-073>077-102300-
SOUTH CENTRAL/SOUTHEAST OKLAHOMA

CITY           SKY/WX    TMP DP  RH WIND       PRES   REMARKS
ARDMORE/DWNTWN CLOUDY    45  30  57 S17       30.20F
MCALESTER      CLOUDY    46  22  38 S9G16     30.21F
$$




USA.gov is the U.S. government's official web portal to all federal, state and local government web resources and services.